CW0565 Weather Reports


time (UTC)temp
F
wind
direction
speed
knots
gust
knots
rain 1hr
in
rain 24hr
in
rain mn
in
humidity
%
barometer
mb
20260904061509 51 160 1.7 4.3 0.00 0.26 0.00 93 999.8
20260904060012 50 160 2.6 4.3 0.00 0.26 0.00 93 1000.2
20260904054510 50 159 2.6 5.2 0.00 0.26 0.00 94 1000.1
20260904053011 50 246 0.0 3.5 0.00 0.26 0.00 93 1000.4
20260904051510 50 246 0.0 3.5 0.00 0.26 0.00 93 1000.7
20260904050009 50 246 1.7 3.5 0.00 0.26 0.00 92 1000.6
20260904044511 50 246 1.7 2.6 0.00 0.26 0.00 90 1000.8
20260904043013 51 246 0.0 0.0 0.00 0.26 0.00 87 1000.7
20260904041510 52 249 0.0 1.7 0.00 0.26 0.00 85 1000.8
20260904040009 52 246 0.0 4.3 0.00 0.26 0.00 86 1000.8
20260904034514 52 246 0.0 4.3 0.00 0.26 0.00 87 1000.9
20260904033009 53 244 0.0 1.7 0.00 0.26 0.00 86 1001.0
20260904031510 53 244 0.0 3.5 0.00 0.26 0.00 85 1000.9
20260904030009 53 246 3.5 7.0 0.00 0.26 0.00 85 1001.2
20260904024513 53 242 1.7 6.1 0.00 0.26 0.00 85 1001.2
20260904023011 53 242 0.0 7.0 0.00 0.26 0.00 85 1001.2
20260904021511 54 240 0.0 7.0 0.00 0.26 0.00 85 1001.3
20260904020010 54 240 0.0 3.5 0.00 0.26 0.00 85 1001.4
20260904014510 54 238 4.3 8.7 0.00 0.26 0.00 85 1001.6
20260904013011 54 242 1.7 8.7 0.00 0.26 0.00 84 1001.6
20260904011515 55 250 5.2 13.0 0.00 0.26 0.00 84 1001.6
20260904010011 55 265 4.3 8.7 0.00 0.26 0.00 85 1001.8
20260904004510 55 268 4.3 9.6 0.00 0.26 0.00 85 1001.7
20260904003014 55 294 0.9 7.8 0.00 0.26 0.00 84 1001.9
20260904001514 55 257 2.6 8.7 0.00 0.26 0.00 86 1002.0
20260904000009 55 267 1.7 8.7 0.00 0.26 0.00 86 1002.2
20260903234510 56 245 3.5 7.0 0.00 0.26 0.00 87 1001.9
20260903233009 56 244 2.6 9.6 0.00 0.26 0.00 88 1002.3
20260903231524 56 234 5.2 10.4 0.00 0.26 0.00 89 1002.6
20260903230009 56 242 5.2 11.3 0.00 0.26 0.00 90 1002.3
20260903224527 56 221 2.6 6.1 0.00 0.26 0.00 91 1002.5
20260903223011 56 252 4.3 9.6 0.00 0.26 0.00 92 1002.3
20260903221503 56 265 6.1 10.4 0.00 0.26 0.00 95 1002.7
20260903220009 56 192 2.6 6.1 0.00 0.26 0.26 96 1002.3
20260903214515 56 199 1.7 5.2 0.00 0.26 0.26 97 1002.7
20260903213010 55 192 2.6 5.2 0.00 0.26 0.26 100 1002.6
20260903211509 55 192 2.6 4.3 0.00 0.26 0.26 100 1002.5
20260903210010 55 192 1.7 4.3 0.00 0.26 0.26 100 1002.7
20260903204512 55 306 1.7 3.5 0.00 0.26 0.26 100 1002.7
20260903203009 55 315 0.0 0.0 0.01 0.26 0.26 100 1002.7
20260903201508 55 315 0.0 0.0 0.01 0.26 0.26 98 1002.6
20260903200010 55 315 0.0 0.0 0.01 0.26 0.26 98 1002.8
20260903194512 55 315 0.0 0.0 0.02 0.26 0.26 97 1003.0
20260903193011 55 314 0.0 2.6 0.04 0.25 0.25 97 1003.1
20260903191509 55 317 0.9 3.5 0.06 0.25 0.25 97 1003.1
20260903190009 55 316 0.0 2.6 0.08 0.25 0.25 97 1002.9
20260903184510 55 317 0.9 4.3 0.11 0.24 0.24 97 1002.8
20260903183011 55 331 2.6 4.3 0.08 0.21 0.21 96 1002.8
20260903181510 55 330 2.6 5.2 0.07 0.20 0.20 96 1002.6
20260903180011 55 14 1.7 7.8 0.05 0.17 0.17 96 1002.6
20260903174510 55 323 0.9 4.3 0.02 0.13 0.13 95 1002.6
20260903173009 55 9 0.0 1.7 0.02 0.13 0.13 95 1002.5
20260903171509 55 17 0.9 1.7 0.02 0.13 0.13 95 1002.6
20260903170010 55 19 0.0 0.9 0.02 0.13 0.13 94 1002.5
20260903164509 55 18 0.9 4.3 0.02 0.12 0.12 94 1002.5
20260903163010 55 73 0.9 3.5 0.03 0.11 0.11 93 1002.7
20260903161512 55 72 1.7 4.3 0.04 0.11 0.11 93 1003.1
20260903160012 56 343 0.0 0.9 0.04 0.10 0.10 93 1003.3
20260903154510 55 344 0.9 3.5 0.06 0.09 0.09 94 1003.4
20260903153014 56 343 0.0 2.6 0.05 0.08 0.08 94 1003.7
20260903151509 56 343 0.0 0.9 0.05 0.07 0.07 93 1004.0
20260903150009 55 343 0.0 2.6 0.04 0.06 0.06 93 1004.0
20260903144510 55 343 1.7 4.3 0.02 0.03 0.03 93 1003.9
20260903143009 55 342 0.9 5.2 0.02 0.03 0.03 92 1004.1
20260903141510 55 348 2.6 7.8 0.01 0.02 0.02 91 1004.1
20260903140009 55 5 1.7 4.3 0.01 0.02 0.02 90 1004.3
20260903134510 56 30 0.0 2.6 0.00 0.02 0.02 88 1004.6
20260903133015 56 29 0.0 1.7 0.00 0.02 0.02 87 1004.6
20260903131510 56 29 0.0 0.0 0.00 0.02 0.02 86 1004.8
20260903130010 56 29 0.0 3.5 0.00 0.02 0.02 85 1004.9
20260903124517 56 65 0.0 2.6 0.00 0.02 0.02 83 1004.8
20260903123009 55 59 0.9 5.2 0.00 0.02 0.02 82 1004.9
20260903121509 57 350 0.9 4.3 0.00 0.02 0.02 80 1005.0
20260903120010 56 342 0.0 2.6 0.00 0.02 0.02 82 1005.1
20260903114510 55 342 1.7 2.6 0.00 0.02 0.02 82 1005.4
20260903113009 55 341 0.9 4.3 0.00 0.02 0.02 83 1005.5
20260903111509 54 342 0.9 3.5 0.00 0.02 0.02 84 1005.7
20260903110012 53 342 0.9 3.5 0.00 0.02 0.02 83 1005.7
20260903104509 53 342 2.6 5.2 0.00 0.02 0.02 83 1006.0
20260903103010 53 355 1.7 4.3 0.00 0.02 0.02 82 1006.2
20260903101510 52 5 1.7 5.2 0.00 0.02 0.02 82 1006.3
20260903100012 51 12 2.6 5.2 0.01 0.02 0.02 81 1006.6
20260903094510 50 5 1.7 5.2 0.01 0.02 0.02 82 1006.7
20260903093013 50 12 1.7 6.1 0.02 0.02 0.02 84 1007.0
20260903091513 49 11 1.7 3.5 0.02 0.02 0.02 85 1007.1
20260903090010 48 12 1.7 4.3 0.01 0.02 0.01 82 1007.3
20260903084510 48 12 3.5 5.2 0.01 0.02 0.01 80 1007.5
20260903083010 48 5 3.5 7.8 0.00 0.01 0.00 79 1007.6
20260903081521 48 326 3.5 7.8 0.00 0.01 0.00 77 1007.7
20260903080010 47 5 2.6 7.8 0.00 0.01 0.00 78 1007.8
20260903074509 47 360 4.3 9.6 0.00 0.01 0.00 78 1008.0
20260903073014 47 26 4.3 8.7 0.00 0.01 0.00 78 1008.1
20260903071510 46 347 0.0 3.5 0.00 0.01 0.00 82 1008.1
20260903070009 45 347 0.9 7.0 0.00 0.01 0.00 83 1008.2
20260903064509 44 355 2.6 5.2 0.00 0.01 0.00 86 1008.5
20260903063009 44 319 0.0 3.5 0.00 0.01 0.00 88 1008.8